Regional Weather Roundup
Issued by NWS New Orleans/Baton Rouge, LA

Home | Current Version | Previous Version | Text Only | Print | Product List | Glossary On
Versions: 1 2 3 4 5 6 7 8 9 10 11 12 13 14 15 16 17 18 19 20 21 22 23 24 25 26 27 28 29 30 31 32 33 34 35 36 37 38 39 40 41 42 43 44 45 46 47 48 49 50
490
ASUS44 KLIX 220701
RWRLIX
NEW ORLEANS REGIONAL WEATHER ROUNDUP
NATIONAL WEATHER SERVICE NEW ORLEANS LA
100 AM CST MON DEC 22 2014

NOTE: "FAIR" INDICATES FEW OR NO CLOUDS BELOW 12,000 FEET WITH NO
      SIGNIFICANT WEATHER AND/OR OBSTRUCTIONS TO VISIBILITY.
      SKY/WX - SKY CONDITION AND SIGNIFICANT WEATHER.
      TMP - AIR TEMPERATURE.     DP    - DEWPOINT TEMPERATURE.
      RH  - RELATIVE HUMIDITY.   PRES  - PRESSURE.
      HI  - HEAT INDEX.          WCI   - WIND CHILL INDEX.

*  THESE STATIONS ARE NOT NWS OR FAA STATIONS AND ARE NOT UNDER
   NWS QUALITY CONTROL.

LAZ038-040-048-061>063-065>067-069-220800-
SOUTHEAST LOUISIANA

CITY           SKY/WX    TMP DP  RH WIND       PRES   REMARKS
N.O. AUDUBON     N/A     58  58  99 MISG        N/A
N.O. INTL ARPT CLOUDY    58  55  90 E5        29.91F FOG
N.O. LAKEFRONT FOG       58  55  90 E9        29.91F VSB 1/2
N.O. DOWNTOWN* CLOUDY    57  54  88 E8G17     29.91F VSB 1
SLIDELL        FOG       55  54  96 NE3       29.92F VSB 3/4
BATON ROUGE    CLOUDY    53  51  93 E7        29.90F FOG
BOOTHVILLE     FOG       58  58 100 E3        29.92S VSB 1
BELLE CHASSE   FOG       58  57  97 E10       29.90F VSB 3/4
BOGALUSA*        N/A     55  52  89 CALM      29.95F FOG
GALLIANO*      NOT AVBL
NEW ROADS*     NOT AVBL
GONZALES*      NOT AVBL
HAMMOND*       NOT AVBL
HOUMA*         CLOUDY    56  55  99 CALM      29.91S FOG
PORT FOURCHON* CLOUDY    61  59  94 E6        29.95F FOG

$$

MSZ070-080>082-220800-
SOUTHERN MISSISSIPPI

CITY           SKY/WX    TMP DP  RH WIND       PRES   REMARKS
MCCOMB         FOG       52  51  97 SE8       29.93S VSB 1
GULFPORT       CLOUDY    56  54  93 E6        29.93F FOG
BILOXI         CLOUDY    56  56 100 E6        29.93F
PASCAGOULA     CLOUDY    57  55  93 E3        29.95S

$$

COASTAL OBSERVATIONS
LAKE AND NEARSHORE STATIONS

STATION/POSITION TIME  TEMP    WIND        PRES    WAVE
                       AIR SEA DIR/SP/G            HT/PER
                 (UTC) (F)     (DEG/KT/KT) (MB)    (FT/S)
PASCAGOULA       0600   57      40/  8/ 11 1013.5
WAVELAND YACHT   0600   55      70/  5/  6 1013.0
GRAND ISLE       0600   61 59   90/  6/ 11 1013.3
SOUTHWEST PASS   0600   63                 1013.0
NEW CANAL        0600   57 56   80/  4/  6 1013.7
SHELL BEACH      0600   57 57   60/ 11/ 13 1013.1

OFFSHORE STATIONS

STATION/POSITION TIME  TEMP    WIND        PRES    WAVE
                       AIR SEA DIR/SP/G            HT/PER
                 (UTC) (F)     (DEG/KT/KT) (MB)    (FT/S)
64 S DAUPHIN ISL 0700   70 74  130/ 16/ 19 1012.5    3/ 4

$$




USA.gov is the U.S. government's official web portal to all federal, state and local government web resources and services.